Lincoln, IL

10:53 AM CDT on July 23, 2017 (GMT -0500)
Lincoln

Weather History for KAAA - November, 2012

Change the Weather History Date:

Friday, November 30, 2012

  Actual Average (KSPI) Record (KSPI)
Temperature  
Mean Temperature 48 °F -  
Max Temperature 61 °F 44 °F 65 °F (1899)
Min Temperature 34 °F 28 °F -3 °F (1964)
Degree Days  
Heating Degree Days 18    
Moisture  
Dew Point 35 °F    
Average Humidity 67    
Maximum Humidity 91    
Minimum Humidity 41    
Precipitation  
Precipitation 0.00 in - - ()
Sea Level Pressure  
Sea Level Pressure 30.08 in    
Wind  
Wind Speed 6 mph (SSW)    
Max Wind Speed 12 mph    
Max Gust Speed -    
Visibility 10 miles    
Events      
Averages and records for this station are not official NWS values.
T = Trace of Precipitation, MM = Missing Value Source: NWS Daily Summary

Daily Weather History Graph

Daily Weather History Graph

Search for Another Location

Airport or City:

Trip Planner

Search our weather history database for the weather conditions in past years. The results will help you decide how hot, cold, wet, or windy it might be!

Date:

Astronomy

Nov. 30, 2012 Rise Set
Actual Time 6:59 AM CST 4:32 PM CST
Civil Twilight 6:29 AM CST 5:02 PM CST
Nautical Twilight 5:56 AM CST 5:36 PM CST
Astronomical Twilight 5:23 AM CST 6:08 PM CST
Moon 6:27 PM CST (11/30) 8:31 AM CST (11/30)
Length of Visible Light 10h 32m
Length of Day
9h 32m
Waning Gibbous, 96% of the Moon is Illuminated
Nov 30
Waning Gibbous
Dec 6
Last Quarter
Dec 13
New
Dec 19
First Quarter
Dec 28
Full

Hourly Weather History & Observations

Time (CST) Temp. Windchill Dew Point Humidity Pressure Visibility Wind Dir Wind Speed Gust Speed Precip Events Conditions
12:15 AM 41.9 °F 35.4 °F 32.9 °F 70% 30.08 in 10.0 mi South 11.5 mph - N/A   Clear
12:35 AM 40.6 °F 34.8 °F 32.7 °F 73% 30.09 in 10.0 mi South 9.2 mph - N/A   Clear
12:55 AM 40.5 °F 34.6 °F 32.4 °F 73% 30.09 in 10.0 mi South 9.2 mph - N/A   Clear
1:15 AM 39.4 °F 32.7 °F 32.2 °F 75% 30.08 in 10.0 mi South 10.4 mph - N/A   Clear
1:35 AM 39.2 °F 35.0 °F 32.0 °F 75% 30.09 in 10.0 mi South 5.8 mph - N/A   Clear
1:55 AM 37.9 °F 33.5 °F 32.0 °F 79% 30.09 in 10.0 mi South 5.8 mph - N/A   Clear
2:15 AM 36.0 °F - 31.6 °F 84% 30.09 in 10.0 mi Calm Calm - N/A   Clear
2:35 AM 34.9 °F 30.8 °F 30.9 °F 85% 30.09 in 10.0 mi South 4.6 mph - N/A   Clear
2:55 AM 37.8 °F 32.5 °F 32.0 °F 80% 30.08 in 10.0 mi South 6.9 mph - N/A   Clear
3:15 AM 38.3 °F 32.5 °F 32.0 °F 78% 30.07 in 10.0 mi South 8.1 mph - N/A   Clear
3:35 AM 38.5 °F 34.1 °F 32.4 °F 79% 30.07 in 10.0 mi South 5.8 mph - N/A   Scattered Clouds
3:55 AM 40.1 °F 36.1 °F 32.9 °F 75% 30.07 in 10.0 mi South 5.8 mph - N/A   Mostly Cloudy
4:15 AM 40.1 °F 34.1 °F 32.9 °F 75% 30.06 in 10.0 mi South 9.2 mph - N/A   Scattered Clouds
4:35 AM 39.9 °F 34.5 °F 32.9 °F 76% 30.06 in 10.0 mi South 8.1 mph - N/A   Clear
4:55 AM 40.3 °F 35.5 °F 32.9 °F 75% 30.07 in 10.0 mi South 6.9 mph - N/A   Scattered Clouds
5:15 AM 40.3 °F 34.9 °F 32.9 °F 75% 30.07 in 10.0 mi South 8.1 mph - N/A   Mostly Cloudy
5:35 AM 39.7 °F 34.3 °F 32.9 °F 77% 30.06 in 10.0 mi South 8.1 mph - N/A   Scattered Clouds
5:55 AM 41.0 °F 37.1 °F 33.8 °F 76% 30.07 in 10.0 mi South 5.8 mph - N/A   Mostly Cloudy
6:15 AM 40.8 °F 34.5 °F 33.1 °F 74% 30.06 in 10.0 mi South 10.4 mph - N/A   Mostly Cloudy
6:35 AM 40.3 °F 36.3 °F 32.9 °F 75% 30.07 in 10.0 mi SSW 5.8 mph - N/A   Scattered Clouds
6:55 AM 39.7 °F 36.5 °F 32.9 °F 77% 30.07 in 10.0 mi SSW 4.6 mph - N/A   Clear
7:15 AM 39.4 °F 36.1 °F 32.5 °F 76% 30.07 in 10.0 mi SSW 4.6 mph - N/A   Clear
7:35 AM 39.6 °F 36.3 °F 32.9 °F 77% 30.07 in 10.0 mi SSW 4.6 mph - N/A   Clear
7:55 AM 40.6 °F 37.5 °F 33.1 °F 74% 30.07 in 10.0 mi SSW 4.6 mph - N/A   Clear
8:15 AM 42.4 °F 38.8 °F 33.1 °F 69% 30.08 in 10.0 mi SSW 5.8 mph - N/A   Clear
8:35 AM 44.2 °F 40.3 °F 33.8 °F 67% 30.08 in 10.0 mi SSW 6.9 mph - N/A   Clear
8:55 AM 45.9 °F 42.9 °F 33.8 °F 63% 30.08 in 10.0 mi SSW 5.8 mph - N/A   Clear
9:15 AM 47.5 °F - 34.3 °F 60% 30.08 in 10.0 mi SSW 6.9 mph - N/A   Clear
9:35 AM 49.3 °F - 34.9 °F 58% 30.08 in 10.0 mi SSW 6.9 mph - N/A   Clear
9:55 AM 51.8 °F - 35.2 °F 53% 30.09 in 10.0 mi SW 5.8 mph - N/A   Clear
10:15 AM 54.3 °F - 35.4 °F 49% 30.08 in 10.0 mi SW 8.1 mph - N/A   Clear
10:35 AM 55.4 °F - 34.5 °F 45% 30.08 in 10.0 mi SW 8.1 mph - N/A   Clear
10:55 AM 56.3 °F - 35.1 °F 45% 30.08 in 10.0 mi SW 6.9 mph - N/A   Clear
11:15 AM 56.8 °F - 35.4 °F 45% 30.07 in 10.0 mi WSW 8.1 mph - N/A   Clear
11:35 AM 57.9 °F - 36.0 °F 44% 30.06 in 10.0 mi West 6.9 mph - N/A   Clear
11:55 AM 58.6 °F - 36.5 °F 44% 30.05 in 10.0 mi WSW 5.8 mph - N/A   Clear
12:15 PM 58.8 °F - 36.1 °F 43% 30.05 in 10.0 mi WSW 3.5 mph - N/A   Clear
12:35 PM 59.4 °F - 36.3 °F 42% 30.04 in 10.0 mi SSW 4.6 mph - N/A   Clear
12:55 PM 59.4 °F - 36.1 °F 42% 30.05 in 10.0 mi West 4.6 mph - N/A   Clear
1:15 PM 60.1 °F - 36.5 °F 41% 30.05 in 10.0 mi SW 4.6 mph - N/A   Clear
1:35 PM 60.6 °F - 36.7 °F 41% 30.04 in 10.0 mi WSW 3.5 mph - N/A   Clear
1:55 PM 61.0 °F - 36.9 °F 41% 30.04 in 10.0 mi West 3.5 mph - N/A   Clear
2:15 PM 61.0 °F - 37.0 °F 41% 30.04 in 10.0 mi WSW 3.5 mph - N/A   Clear
2:35 PM 61.2 °F - 37.4 °F 41% 30.04 in 10.0 mi WSW 3.5 mph - N/A   Clear
2:55 PM 61.0 °F - 37.6 °F 42% 30.04 in 7.0 mi Calm Calm - N/A   Clear
3:15 PM 60.8 °F - 38.3 °F 43% 30.05 in 10.0 mi SSW 4.6 mph - N/A   Clear
3:35 PM 59.9 °F - 38.3 °F 45% 30.05 in 10.0 mi SSW 3.5 mph - N/A   Clear
3:55 PM 58.8 °F - 38.5 °F 47% 30.06 in 10.0 mi Calm Calm - N/A   Clear
4:15 PM 56.5 °F - 38.3 °F 51% 30.06 in 10.0 mi Calm Calm - N/A   Clear
4:35 PM 53.4 °F - 38.3 °F 57% 30.07 in 10.0 mi Calm Calm - N/A   Clear
4:55 PM 49.8 °F - 37.0 °F 61% 30.08 in 10.0 mi Calm Calm - N/A   Clear
5:15 PM 48.2 °F - 37.4 °F 66% 30.08 in 10.0 mi Calm Calm - N/A   Clear
5:35 PM 45.3 °F - 35.6 °F 69% 30.09 in 10.0 mi Calm Calm - N/A   Clear
5:55 PM 44.4 °F - 35.6 °F 71% 30.09 in 10.0 mi Calm Calm - N/A   Clear
6:15 PM 43.5 °F 39.4 °F 34.7 °F 71% 30.10 in 10.0 mi East 6.9 mph - N/A   Clear
6:35 PM 46.6 °F - 36.9 °F 69% 30.10 in 10.0 mi SE 3.5 mph - N/A   Clear
6:55 PM 44.6 °F 43.1 °F 36.0 °F 72% 30.10 in 10.0 mi SE 3.5 mph - N/A   Clear
7:15 PM 43.7 °F 42.1 °F 36.0 °F 74% 30.10 in 10.0 mi SE 3.5 mph - N/A   Clear
7:35 PM 43.0 °F 41.3 °F 35.6 °F 75% 30.10 in 10.0 mi ESE 3.5 mph - N/A   Clear
7:55 PM 43.0 °F 41.3 °F 36.1 °F 77% 30.10 in 10.0 mi SE 3.5 mph - N/A   Clear
8:15 PM 41.4 °F 39.4 °F 35.1 °F 78% 30.10 in 10.0 mi ESE 3.5 mph - N/A   Clear
8:35 PM 40.8 °F - 34.7 °F 79% 30.10 in 10.0 mi Calm Calm - N/A   Clear
8:55 PM 39.2 °F 37.0 °F 33.8 °F 81% 30.10 in 10.0 mi SE 3.5 mph - N/A   Clear
9:15 PM 39.7 °F 37.6 °F 35.1 °F 83% 30.09 in 10.0 mi SE 3.5 mph - N/A   Clear
9:35 PM 38.7 °F - 34.7 °F 86% 30.09 in 10.0 mi Calm Calm - N/A   Clear
9:55 PM 36.5 °F - 33.1 °F 87% 30.10 in 10.0 mi Calm Calm - N/A   Clear
10:15 PM 38.3 °F - 34.7 °F 87% 30.10 in 10.0 mi Calm Calm - N/A   Clear
10:35 PM 38.5 °F 36.1 °F 34.9 °F 87% 30.10 in 10.0 mi South 3.5 mph - N/A   Clear
10:55 PM 37.0 °F - 33.8 °F 88% 30.10 in 10.0 mi Calm Calm - N/A   Clear
11:15 PM 37.0 °F 34.5 °F 34.2 °F 89% 30.09 in 10.0 mi ESE 3.5 mph - N/A   Clear
11:35 PM 35.8 °F 33.0 °F 33.4 °F 91% 30.10 in 10.0 mi ESE 3.5 mph - N/A   Clear
11:55 PM 36.1 °F 33.5 °F 33.8 °F 91% 30.10 in 10.0 mi SE 3.5 mph - N/A   Clear